This demonstration page uses our WeatherBlox Daily Observations layout. Learn more.

Hourly Observations for March 13, 2015

Temp ( °F °C ) Dew Point ( °F °C ) Humidity (%) Winds ( mph kmh ) Pressure ( in mb ) Visibility ( mi km ) Precip ( " mm )
12:15 am 00:15 Clear 51 10.5 31 -0.8 46 46 S 8 13 30.12 1020 10 16.0934 0 0
12:35 am 00:35 Clear 49 9.7 31 -0.8 48 48 S 8 13 30.15 1021 10 16.0934 0 0
12:55 am 00:55 Clear 49 9.4 31 -0.6 50 50 SSW 7 11 30.15 1021 10 16.0934 0 0
1:15 am 01:15 Clear 49 9.2 31 -0.5 51 51 SSW 8 13 30.15 1021 10 16.0934 0 0
1:35 am 01:35 Clear 48 8.7 31 -0.5 53 53 SW 6 9 30.15 1021 10 16.0934 0 0
1:55 am 01:55 Clear 47 8.2 31 -0.3 55 55 SW 6 9 30.15 1021 10 16.0934 0 0
2:15 am 02:15 Clear 47 8.5 32 0 55 55 SW 8 13 30.15 1021 10 16.0934 0 0
2:35 am 02:35 Clear 47 8.3 31 -0.3 55 55 SW 6 9 30.15 1021 10 16.0934 0 0
2:55 am 02:55 Clear 47 8.4 32 -0.1 55 55 WSW 8 13 30.15 1021 10 16.0934 0 0
3:15 am 03:15 Clear 47 8.1 32 -0.2 56 56 SW 6 9 30.15 1021 10 16.0934 0 0
3:35 am 03:35 Clear 46 7.7 31 -0.3 57 57 WSW 5 7 30.15 1021 10 16.0934 0 0
3:55 am 03:55 Clear 45 7.4 31 -0.3 58 58 W 9 15 30.18 1022 10 16.0934 0 0
4:15 am 04:15 Clear 45 7 31 -0.7 58 58 W 7 11 30.18 1022 10 16.0934 0 0
4:35 am 04:35 Clear 44 6.6 31 -0.8 60 60 W 7 11 30.18 1022 10 16.0934 0 0
4:55 am 04:55 Clear 42 5.8 30 -1.3 61 61 W 3 6 30.18 1022 10 16.0934 0 0
5:15 am 05:15 Clear 40 4.7 29 -1.4 65 65 Calm 30.18 1022 10 16.0934 0 0
5:35 am 05:35 Clear 44 6.7 31 -0.7 60 60 S 5 7 30.18 1022 10 16.0934 0 0
5:55 am 05:55 Clear 36 2.3 28 -2.4 71 71 Calm 30.21 1023 10 16.0934 0 0
6:15 am 06:15 Clear 37 2.9 28 -2.1 70 70 NNW 6 9 30.21 1023 10 16.0934 0 0
6:35 am 06:35 Clear 39 4 29 -1.6 67 67 NNW 5 7 30.18 1022 10 16.0934 0 0
6:55 am 06:55 Clear 37 3 28 -2.4 68 68 NW 5 7 30.24 1024 10 16.0934 0 0
7:15 am 07:15 Clear 37 2.5 27 -2.6 69 69 NNW 8 13 30.24 1024 10 16.0934 0 0
7:35 am 07:35 Clear 40 4.5 29 -1.7 64 64 NNW 9 15 30.21 1023 10 16.0934 0 0
7:55 am 07:55 Sunny 44 6.5 29 -1.9 55 55 N 10 17 30.21 1023 10 16.0934 0 0
8:15 am 08:15 Sunny 43 6.2 28 -2 56 56 N 9 15 30.21 1023 10 16.0934 0 0
8:35 am 08:35 Sunny 45 7.1 29 -1.6 54 54 N 10 17 30.24 1024 10 16.0934 0 0
8:55 am 08:55 Sunny 47 8.1 30 -1.3 52 52 NNW 9 15 30.21 1023 10 16.0934 0 0
9:15 am 09:15 Sunny 49 9.6 30 -0.9 48 48 N 15 24 30.21 1023 10 16.0934 0 0
9:35 am 09:35 Sunny 53 11.5 31 -0.6 43 43 N 16 26 30.18 1022 10 16.0934 0 0
9:55 am 09:55 Sunny 55 12.7 31 -0.5 40 40 N 14 22 30.18 1022 10 16.0934 0 0
10:15 am 10:15 Sunny 58 14.5 31 -0.8 35 35 N 16 26 30.15 1021 10 16.0934 0 0
10:35 am 10:35 Sunny 61 16.3 30 -1.1 31 31 N 18 30 30.18 1022 10 16.0934 0 0
10:55 am 10:55 Sunny 64 17.5 30 -1 29 29 NNE 18 30 30.18 1022 10 16.0934 0 0
11:15 am 11:15 Sunny 65 18.2 30 -1.3 27 27 NNE 23 37 30.18 1022 10 16.0934 0 0
11:35 am 11:35 Sunny 67 19.2 30 -1.1 25 25 N 25 41 30.15 1021 10 16.0934 0 0
11:55 am 11:55 Sunny 66 19 29 -1.5 25 25 N 26 43 30.15 1021 10 16.0934 0 0
12:15 pm 12:15 Sunny 67 19.2 28 -2.4 23 23 N 25 41 30.15 1021 10 16.0934 0 0
12:35 pm 12:35 Sunny 67 19.7 28 -2.1 23 23 NNE 21 33 30.15 1021 10 16.0934 0 0
12:55 pm 12:55 Sunny 69 20.7 27 -2.7 21 21 NE 24 39 30.15 1021 10 16.0934 0 0
1:15 pm 13:15 Sunny 70 21.1 27 -2.8 20 20 N 25 41 30.12 1020 10 16.0934 0 0
1:35 pm 13:35 Sunny 70 21.2 26 -3.2 19 19 NNE 28 44 30.12 1020 10 16.0934 0 0
1:55 pm 13:55 Sunny 70 21.3 26 -3.2 19 19 N 29 46 30.15 1021 10 16.0934 0 0
2:15 pm 14:15 Sunny 71 21.5 26 -3.2 19 19 N 26 43 30.09 1019 10 16.0934 0 0
2:35 pm 14:35 Sunny 71 21.5 26 -3.2 19 19 NNE 29 46 30.09 1019 10 16.0934 0 0
2:55 pm 14:55 Sunny 71 21.6 27 -2.7 19 19 N 24 39 30.09 1019 10 16.0934 0 0
3:15 pm 15:15 Sunny 70 21.2 28 -2 21 21 NNE 21 33 30.12 1020 10 16.0934 0 0
3:35 pm 15:35 Sunny 71 21.8 28 -2 20 20 N 24 39 30.09 1019 10 16.0934 0 0
3:55 pm 15:55 Partly Cloudy 71 21.8 29 -1.9 20 20 NNE 21 33 30.09 1019 10 16.0934 0 0
4:15 pm 16:15 Partly Cloudy 71 21.5 28 -2.5 20 20 N 24 39 30.09 1019 10 16.0934 0 0
4:35 pm 16:35 Sunny 71 21.4 27 -2.7 20 20 N 25 41 30.12 1020 10 16.0934 0 0
4:55 pm 16:55 Sunny 70 21 28 -2 21 21 N 21 33 30.12 1020 10 16.0934 0 0
5:15 pm 17:15 Partly Cloudy 69 20.4 29 -1.7 23 23 N 18 30 30.12 1020 10 16.0934 0 0
5:35 pm 17:35 Partly Cloudy 69 20.4 28 -2.1 22 22 N 25 41 30.12 1020 10 16.0934 0 0
5:55 pm 17:55 Partly Cloudy 68 20.1 28 -2.5 22 22 NNE 23 37 30.12 1020 10 16.0934 0 0
6:15 pm 18:15 Partly Cloudy 68 19.8 27 -2.8 22 22 N 18 30 30.12 1020 10 16.0934 0 0
6:35 pm 18:35 Sunny 66 19.1 25 -4.1 21 21 N 21 33 30.12 1020 10 16.0934 0 0
6:55 pm 18:55 Sunny 65 18.2 23 -5.1 20 20 N 18 30 30.12 1020 10 16.0934 0 0
7:15 pm 19:15 Sunny 63 17.2 22 -5.3 21 21 N 15 24 30.18 1022 10 16.0934 0 0
7:35 pm 19:35 Sunny 61 15.9 21 -5.9 22 22 N 13 20 30.18 1022 10 16.0934 0 0
7:55 pm 19:55 Clear 57 14.1 20 -6.4 24 24 N 10 17 30.21 1023 10 16.0934 0 0
8:15 pm 20:15 Clear 54 12.1 20 -6.5 27 27 N 9 15 30.21 1023 10 16.0934 0 0
8:35 pm 20:35 Clear 50 10.2 20 -6.6 30 30 N 8 13 30.24 1024 10 16.0934 0 0
8:55 pm 20:55 Clear 48 8.7 19 -7.1 32 32 N 9 15 30.24 1024 7 11.26538 0 0
9:15 pm 21:15 Clear 49 9.3 20 -6.7 32 32 N 9 15 30.27 1025 10 16.0934 0 0
9:35 pm 21:35 Clear 51 10.4 20 -6.5 30 30 NNW 7 11 30.27 1025 10 16.0934 0 0
9:55 pm 21:55 Clear 48 9 20 -6.6 33 33 N 9 15 30.27 1025 10 16.0934 0 0
10:15 pm 22:15 Clear 46 7.8 20 -6.5 36 36 N 9 15 30.3 1026 10 16.0934 0 0
10:35 pm 22:35 Clear 43 6 21 -6.3 41 41 N 7 11 30.3 1026 10 16.0934 0 0
10:55 pm 22:55 Clear 46 7.7 22 -5.6 39 39 N 9 15 30.3 1026 10 16.0934 0 0
11:15 pm 23:15 Clear 46 7.9 23 -5.1 40 40 N 8 13 30.33 1027 10 16.0934 0 0
11:35 pm 23:35 Clear 46 7.6 23 -5.1 40 40 N 9 15 30.33 1027 10 16.0934 0 0
11:55 pm 23:55 Clear 45 7.4 23 -4.8 42 42 N 9 15 30.33 1027 10 16.0934 0 0

Powered by AerisWeather